Weather History for Thermopolis, WY

Change the Weather History Date:

Monday, April 14, 2014

  Actual Average (KWRL) Record (KWRL)
Temperature  
Mean Temperature 22 °F 45 °F  
Max Temperature 32 °F 60 °F 84 °F (2002)
Min Temperature 12 °F 31 °F 10 °F (1986)
Degree Days  
Heating Degree Days 43 20  
Month to date heating degree days 303  
Since 1 July heating degree days 7189  
Cooling Degree Days 0 0  
Month to date cooling degree days 0  
Year to date cooling degree days 0  
Moisture  
Dew Point 10 °F    
Average Humidity 63    
Maximum Humidity 92    
Minimum Humidity 34    
Precipitation  
Precipitation 0.00 in 0.03 in 0.54 in (1998)
Month to date precipitation 0.29  
Year to date precipitation 1.17  
Sea Level Pressure  
Sea Level Pressure 30.23 in    
Wind  
Wind Speed 15 mph (South)    
Max Wind Speed 24 mph    
Max Gust Speed 18 mph    
T = Trace of Precipitation, MM = Missing Value Source: NWS Daily Summary

Daily Weather History Graph

Daily Weather History Graph

Search for Another Location

Airport:

Trip Planner

Search our weather history database for the weather conditions in past years. The results will help you decide how hot, cold, wet, or windy it might be!

Date:

Astronomy

Apr. 14, 2014 Rise Set
Actual Time 6:32 AM MDT 7:55 PM MDT
Civil Twilight 6:02 AM MDT 8:24 PM MDT
Nautical Twilight 5:26 AM MDT 9:00 PM MDT
Astronomical Twilight 4:48 AM MDT 9:38 PM MDT
Moon 7:36 PM MDT (4/14) 6:07 AM MDT (4/14)
Length of Visible Light 14h 22m
Length of Day
13h 23m
Full, 100% of the Moon is Illuminated
Apr 14
Full
Apr 15
Full
Apr 22
Last Quarter
Apr 29
New
May 6
First Quarter

Hourly Weather History & Observations

Time (MDT) Temp. Windchill Dew Point Humidity Pressure Visibility Wind Dir Wind Speed Gust Speed Precip Events Conditions
12:15 AM 12.2 °F -6.3 °F 10.4 °F 92% 30.29 in - WNW 20.7 mph - N/A   Unknown
12:35 AM 12.2 °F -7.5 °F 10.4 °F 92% 30.29 in - WNW 24.2 mph - N/A   Unknown
12:55 AM 12.2 °F -7.5 °F 10.4 °F 92% 30.29 in - WNW 24.2 mph - N/A   Unknown
1:15 AM 12.2 °F -7.5 °F 10.4 °F 92% 30.29 in - WNW 24.2 mph - N/A   Unknown
1:35 AM 12.2 °F -5.8 °F 10.4 °F 92% 30.29 in - WNW 19.6 mph - N/A   Unknown
1:55 AM 12.2 °F -5.3 °F 10.4 °F 92% 30.28 in - WNW 18.4 mph - N/A   Unknown
2:15 AM 12.2 °F -4.8 °F 10.4 °F 92% 30.28 in - WNW 17.3 mph - N/A   Unknown
2:35 AM 14.0 °F -1.4 °F 10.4 °F 86% 30.28 in - WNW 15.0 mph - N/A   Unknown
2:55 AM 14.0 °F -1.4 °F 10.4 °F 86% 30.28 in - WNW 15.0 mph - N/A   Unknown
3:15 AM 12.2 °F -2.5 °F 10.4 °F 92% 30.28 in - West 12.7 mph - N/A   Unknown
3:35 AM 14.0 °F -0.8 °F 10.4 °F 86% 30.28 in - West 13.8 mph - N/A   Unknown
3:55 AM 14.0 °F -1.4 °F 10.4 °F 86% 30.28 in - WNW 15.0 mph - N/A   Unknown
4:15 AM 14.0 °F -0.8 °F 8.6 °F 79% 30.28 in - West 13.8 mph - N/A   Clear
4:35 AM 14.0 °F -1.4 °F 8.6 °F 79% 30.28 in - WNW 15.0 mph - N/A   Clear
4:55 AM 14.0 °F 0.5 °F 8.6 °F 79% 30.28 in - WNW 11.5 mph - N/A   Clear
5:15 AM 14.0 °F 1.2 °F 8.6 °F 79% 30.28 in - West 10.4 mph - N/A   Clear
5:35 AM 14.0 °F 1.2 °F 6.8 °F 73% 30.27 in - West 10.4 mph - N/A   Clear
5:55 AM 14.0 °F 2.9 °F 5.0 °F 67% 30.28 in - WSW 8.1 mph - N/A   Clear
6:15 AM 15.8 °F 7.2 °F 5.0 °F 62% 30.28 in - SW 5.8 mph - N/A   Clear
6:35 AM 15.8 °F 5.1 °F 5.0 °F 62% 30.28 in - WSW 8.1 mph - N/A   Clear
6:55 AM 17.6 °F 7.3 °F 5.0 °F 58% 30.28 in - WSW 8.1 mph - N/A   Clear
7:15 AM 17.6 °F 7.3 °F 5.0 °F 58% 30.28 in - SSW 8.1 mph - N/A   Clear
7:35 AM 17.6 °F 4.3 °F 6.8 °F 63% 30.28 in - SSW 12.7 mph - N/A   Clear
7:55 AM 17.6 °F 3.7 °F 6.8 °F 63% 30.28 in - SSW 13.8 mph - N/A   Clear
8:15 AM 17.6 °F 3.2 °F 8.6 °F 68% 30.28 in - SSW 15.0 mph - N/A   Clear
8:35 AM 17.6 °F 3.7 °F 8.6 °F 68% 30.28 in - SSW 13.8 mph - N/A   Clear
8:55 AM 17.6 °F 3.7 °F 8.6 °F 68% 30.28 in - SSW 13.8 mph - N/A   Clear
9:15 AM 19.4 °F 6.6 °F 8.6 °F 63% 30.28 in - SSW 12.7 mph - N/A   Clear
9:35 AM 19.4 °F 6.6 °F 8.6 °F 63% 30.28 in - SSW 12.7 mph - N/A   Clear
9:55 AM 19.4 °F 11.5 °F 8.6 °F 63% 30.28 in - South 5.8 mph - N/A   Clear
10:15 AM 19.4 °F 12.8 °F 10.4 °F 68% 30.28 in - SE 4.6 mph - N/A   Clear
10:35 AM 19.4 °F 11.5 °F 12.2 °F 74% 30.28 in - SSE 5.8 mph - N/A   Clear
10:55 AM 19.4 °F 11.5 °F 12.2 °F 74% 30.28 in - SSE 5.8 mph - N/A   Clear
11:15 AM 19.4 °F 11.5 °F 14.0 °F 80% 30.28 in - SE 5.8 mph - N/A   Clear
11:35 AM 21.2 °F 12.6 °F 17.6 °F 86% 30.28 in - SE 6.9 mph - N/A   Unknown
11:55 AM 21.2 °F 12.6 °F 17.6 °F 86% 30.28 in - SE 6.9 mph - N/A   Unknown
12:15 PM 21.2 °F 13.6 °F 15.8 °F 80% 30.27 in - SSE 5.8 mph - N/A   Clear
12:35 PM 21.2 °F 13.6 °F 17.6 °F 86% 30.26 in - SE 5.8 mph - N/A   Clear
12:55 PM 23.0 °F 14.7 °F 17.6 °F 80% 30.26 in - SE 6.9 mph - N/A   Clear
1:15 PM 23.0 °F 11.7 °F 14.0 °F 68% 30.25 in - ESE 11.5 mph - N/A   Clear
1:35 PM 23.0 °F 11.7 °F 12.2 °F 63% 30.24 in - ESE 11.5 mph - N/A   Clear
1:55 PM 26.6 °F 16.2 °F 14.0 °F 59% 30.23 in - SE 11.5 mph 17.3 mph N/A   Clear
2:15 PM 26.6 °F 16.2 °F 14.0 °F 59% 30.23 in - SE 11.5 mph 18.4 mph N/A   Clear
2:35 PM 26.6 °F 16.8 °F 14.0 °F 59% 30.22 in - SE 10.4 mph - N/A   Clear
2:55 PM 26.6 °F 15.2 °F 14.0 °F 59% 30.22 in - ESE 13.8 mph - N/A   Clear
3:15 PM 28.4 °F 17.0 °F 12.2 °F 51% 30.21 in - ESE 15.0 mph - N/A   Clear
3:35 PM 28.4 °F 16.6 °F 12.2 °F 51% 30.20 in - ESE 16.1 mph - N/A   Clear
3:55 PM 28.4 °F 18.0 °F 10.4 °F 47% 30.19 in - SE 12.7 mph - N/A   Unknown
4:15 PM 30.2 °F 18.9 °F 10.4 °F 44% 30.18 in - ESE 16.1 mph - N/A   Unknown
4:35 PM 30.2 °F 20.2 °F 12.2 °F 47% 30.17 in - ESE 12.7 mph - N/A   Unknown
4:55 PM 30.2 °F 20.8 °F 12.2 °F 47% 30.16 in - SE 11.5 mph 16.1 mph N/A   Unknown
5:15 PM 30.2 °F 20.8 °F 8.6 °F 40% 30.16 in - ESE 11.5 mph - N/A   Clear
5:35 PM 32.0 °F 22.1 °F 8.6 °F 38% 30.15 in - SE 13.8 mph - N/A   Clear
5:55 PM 30.2 °F 20.2 °F 5.0 °F 34% 30.15 in - SE 12.7 mph - N/A   Clear
6:15 PM 32.0 °F 24.8 °F 8.6 °F 38% 30.14 in - SE 8.1 mph - N/A   Clear
6:35 PM 30.2 °F 21.9 °F 6.8 °F 37% 30.15 in - SE 9.2 mph - N/A   Clear
6:55 PM 32.0 °F 26.4 °F 8.6 °F 38% 30.15 in - SE 5.8 mph - N/A   Clear
7:15 PM 30.2 °F 21.3 °F 8.6 °F 40% 30.13 in - SE 10.4 mph - N/A   Clear
7:55 PM 30.2 °F 22.6 °F 5.0 °F 34% 30.12 in - SSE 8.1 mph - N/A   Clear
8:15 PM 30.2 °F 20.2 °F 5.0 °F 34% 30.12 in - SSE 12.7 mph - N/A   Clear
8:35 PM 30.2 °F 19.8 °F 5.0 °F 34% 30.12 in - SSE 13.8 mph - N/A   Clear
8:55 PM 30.2 °F 20.8 °F 5.0 °F 34% 30.12 in - SSE 11.5 mph 17.3 mph N/A   Clear
9:15 PM 32.0 °F 21.2 °F 8.6 °F 38% 30.12 in - SSE 16.1 mph - N/A   Clear
9:35 PM 32.0 °F 21.2 °F 8.6 °F 38% 30.12 in - SSE 16.1 mph - N/A   Clear
10:15 PM 32.0 °F 22.5 °F 8.6 °F 38% 30.13 in - SSE 12.7 mph - N/A   Clear
10:35 PM 32.0 °F 21.6 °F 10.4 °F 41% 30.12 in - SSE 15.0 mph - N/A   Clear
11:15 PM 32.0 °F 22.5 °F 8.6 °F 38% 30.11 in - SSE 12.7 mph - N/A   Clear
11:35 PM 32.0 °F 22.5 °F 10.4 °F 41% 30.10 in - SSE 12.7 mph - N/A   Clear
11:55 PM 32.0 °F 23.0 °F 10.4 °F 41% 30.10 in - SSE 11.5 mph - N/A   Clear